Regional Weather Roundup
Issued by NWS Portland, ME

Current Version | Previous Version | Text Only | Print | Product List | Glossary Off
Versions: 1 2 3 4 5 6 7 8 9 10 11 12 13 14 15 16 17 18 19 20 21 22 23 24 25 26 27 28 29 30 31 32 33 34 35 36 37 38 39 40 41 42 43 44 45 46 47 48 49 50
554 ASUS41 KGYX 191906 RWRGYX WEATHER ROUNDUP FOR MAINE AND NEW HAMPSHIRE NATIONAL WEATHER SERVICE GRAY ME 300 PM EDT THU OCT 19 2017 MEZ002-005-006-010-012-015-018-020-021-024-026-027-029-192000- MAINE CITY SKY/WX TMP DP RH WIND PRES REMARKS PORTLAND FAIR 66 52 60 S10 30.00F SANFORD N/A 74 44 34 SW12G20 N/A BAR HARBOR FAIR 61 54 77 S17 30.04F WISCASSET FAIR 66 53 63 S14G21 30.03F ROCKLAND FAIR 61 56 83 S12 30.02F FRYEBURG FAIR 72 44 36 VRB7 29.97F LEWISTONAUBURN FAIR 73 46 38 SW16 29.97F AUGUSTA FAIR 68 50 52 S12G20 29.98F WATERVILLE FAIR 68 50 52 S10G17 29.94F BANGOR FAIR 67 51 56 S22G31 29.97F GREENVILLE N/A 65 45 48 S12G21 29.89F MILLINOCKET FAIR 71 46 40 S12G18 29.91F HOULTON FAIR 71 43 36 S13G28 29.89F PRESQUE ISLE FAIR 68 45 43 S22G29 29.85F FRENCHVILLE FAIR 68 38 33 S17G26 29.79F CARIBOU FAIR 68 45 43 S18G31 29.82F $$ NHZ002-005-008-009-011-012-014-192000- NEW HAMPSHIRE CITY SKY/WX TMP DP RH WIND PRES REMARKS PORTSMOUTH MOSUNNY 74 45 35 SW15 30.00F ROCHESTER FAIR 74 43 32 VRB6 30.00F NASHUA FAIR 73 41 31 SW7G21 30.04F MANCHESTER FAIR 74 38 27 SW10G21 30.01F CONCORD FAIR 75 41 29 S13G22 30.00F LACONIA FAIR 73 40 30 SW18 29.98F PLYMOUTH FAIR 74 37 25 S5 29.96F BERLIN FAIR 75 32 20 W10G28 29.92F WHITEFIELD FAIR 73 35 25 SW9 29.94F JAFFREY FAIR 70 42 36 SW9G17 30.05F KEENE FAIR 73 41 31 S16 30.02F LEBANON FAIR 75 40 28 S16G28 29.96F MT WASHINGTON MOSUNNY 45 28 53 SW43G52 N/A $$ VTZ005-007-008-192000- VERMONT CITY SKY/WX TMP DP RH WIND PRES REMARKS ST JOHNSBURY N/A 71 43 36 MISG 29.90F MONTPELIER FAIR 69 33 26 S12G28 29.97F BURLINGTON PTSUNNY 71 43 36 S21G31 29.88F $$ MAZ007-012-024-CTZ003-RIZ002-NYZ038-NYZ072-192000- SOUTHERN NEW ENGLAND AND NY CITY SKY/WX TMP DP RH WIND PRES REMARKS BOSTON FAIR 74 45 35 SW17 30.05F WORCESTER FAIR 69 37 30 SW18G25 30.08F NANTUCKET FAIR 64 59 83 SW15 30.17F PROVIDENCE FAIR 71 49 45 SW20G26 30.12F HARTFORD FAIR 74 38 27 S16G24 30.07F ALBANY PTSUNNY 71 45 39 S12G21 30.01F NEW YORK CITY FAIR 72 39 30 SW14 30.12F $$ ANZ081-ANZ082-ANZ150-NHZ014-MEZ023>029-192000- COASTAL MARINE OBSERVATIONS STATION/POSITION TIME TEMP WIND PRES WAVE AIR SEA DIR/SP/G HT/PER (UTC) (F) (DEG/KT/KT) (MB) (FT/S) MOUNT DESERT ROC 1900 58 170/ 21/ 23 1018.1F MATINICUS ROCK 1800 57 190/ 21/ 23 1018.2F ISLE OF SHOALS 1800 64 190/ 16/ 17 1017.7F JEFFREYS LEDGE 1836 58 N/A 3/ 4 CASHES LEDGE BUO 1750 60 56 1019.4 3/ 4 GEORGES BANK BUO 1750 64 62 1023.3 3/10 $$ .............KEY.............. WCI - WIND CHILL TC - TEMPERATURE IN CELSIUS VSB - VISIBILITY IN MILES HX - HEAT INDEX FAIR- INDICATES FEW OR NO CLOUDS BELOW 12,000 FT, WITH NO SIGNIFICANT WEATHER AND/OR OBSTRUCTIONS TO VISIBILITY.

USA.gov is the U.S. government's official web portal to all federal, state and local government web resources and services.